Terminal Aerodrome Forecast
Issued by NWS

Home | Current Version | Previous Version | Text Only | Print | Product List | Glossary On
Versions: 1 2 3 4 5 6 7 8 9 10 11 12 13 14 15 16 17 18 19 20 21 22
000
FTUS42 TJSJ 221200 AAA
TAFIST
TAF AMD
TIST 221255Z 2213/2312 12015KT P6SM VCTS SCT020CB BKN030
      TEMPO 2213/2215 VRB06KT 1SM +SHRA BKN018 OVC040
     FM221500 14015KT P6SM VCTS SCT015CB BKN025 OVC040=

USA.gov is the U.S. government's official web portal to all federal, state and local government web resources and services.